Location: Borowce
(50.8255°N, 19.6209°E)
Time: 08:02:55
(UTC+00:00)

Cosmos 1238 Rocket - Pass Details

Date: 19 May 2025
Orbit: 356 x 777 km, 82.9° (Epoch: 17 June)

Event Time Altitude Azimuth Distance (km) Brightness Sun altitude
Exits shadow 21:21:25 13° 228° (SW) 1,480 4.8 -17.2°
Maximum altitude 21:24:03 29° 285° (WNW) 875 4.2 -17.4°
Drops below altitude 10° 21:26:59 10° 348° (NNW) 1,525 6.4 -17.5°
Sets 21:29:05 0° 0° (N) 2,338 7.5 -17.6°
